| time (UTC) | temp F | wind direction | speed MPH | gust MPH | rain 1hr in | rain 24hr in | rain mn in | humidity % | barometer mb |
| 20260506214518 | 44 | 345 | 1.0 | 8.0 | 0.00 | 0.01 | 0.00 | 64 | 1012.3 |
| 20260506213012 | 45 | 29 | 5.0 | 9.0 | 0.00 | 0.01 | 0.00 | 66 | 1012.4 |
| 20260506211512 | 44 | 330 | 3.0 | 9.0 | 0.00 | 0.01 | 0.00 | 65 | 1012.0 |
| 20260506210014 | 46 | 358 | 1.0 | 8.0 | 0.00 | 0.01 | 0.00 | 69 | 1012.3 |
| 20260506204514 | 43 | 26 | 4.0 | 8.0 | 0.00 | 0.01 | 0.00 | 68 | 1012.2 |
| 20260506203014 | 44 | 2 | 3.0 | 8.0 | 0.00 | 0.01 | 0.00 | 68 | 1012.2 |
| 20260506201518 | 44 | 56 | 2.0 | 6.0 | 0.00 | 0.01 | 0.00 | 69 | 1012.3 |
| 20260506200015 | 44 | 22 | 2.0 | 6.0 | 0.00 | 0.01 | 0.00 | 68 | 1012.5 |
| 20260506194513 | 43 | 4 | 3.0 | 10.0 | 0.00 | 0.01 | 0.00 | 71 | 1012.6 |
| 20260506193013 | 43 | 358 | 1.0 | 6.0 | 0.00 | 0.01 | 0.00 | 74 | 1012.5 |
| 20260506191513 | 40 | 359 | 2.0 | 8.0 | 0.00 | 0.01 | 0.00 | 72 | 1012.6 |
| 20260506190012 | 41 | 3 | 4.0 | 9.0 | 0.00 | 0.01 | 0.00 | 71 | 1012.8 |
| 20260506184521 | 42 | 323 | 4.0 | 8.0 | 0.00 | 0.01 | 0.00 | 72 | 1013.0 |
| 20260506183014 | 42 | 1 | 3.0 | 10.0 | 0.00 | 0.01 | 0.00 | 72 | 1013.3 |
| 20260506181513 | 40 | 314 | 4.0 | 11.0 | 0.00 | 0.01 | 0.00 | 74 | 1013.2 |
| 20260506180013 | 40 | 330 | 4.0 | 9.0 | 0.00 | 0.01 | 0.00 | 75 | 1013.0 |
| 20260506174513 | 40 | 351 | 3.0 | 9.0 | 0.00 | 0.01 | 0.00 | 74 | 1012.8 |
| 20260506173013 | 40 | 290 | 4.0 | 10.0 | 0.00 | 0.01 | 0.00 | 74 | 1013.0 |
| 20260506171513 | 41 | 315 | 3.0 | 10.0 | 0.00 | 0.01 | 0.00 | 74 | 1013.0 |
| 20260506170014 | 42 | 323 | 3.0 | 9.0 | 0.00 | 0.01 | 0.00 | 73 | 1013.0 |
| 20260506164514 | 43 | 281 | 3.0 | 9.0 | 0.00 | 0.01 | 0.00 | 73 | 1012.8 |
| 20260506163014 | 42 | 296 | 2.0 | 11.0 | 0.00 | 0.01 | 0.00 | 75 | 1012.8 |
| 20260506161514 | 42 | 328 | 3.0 | 9.0 | 0.00 | 0.01 | 0.00 | 76 | 1012.7 |
| 20260506160015 | 41 | 311 | 4.0 | 14.0 | 0.00 | 0.01 | 0.00 | 77 | 1012.6 |
| 20260506154513 | 41 | 241 | 2.0 | 11.0 | 0.00 | 0.01 | 0.00 | 78 | 1012.5 |
| 20260506153013 | 41 | 356 | 4.0 | 11.0 | 0.00 | 0.01 | 0.00 | 77 | 1012.4 |
| 20260506151514 | 42 | 297 | 4.0 | 12.0 | 0.00 | 0.01 | 0.00 | 77 | 1011.9 |
| 20260506150014 | 42 | 315 | 5.0 | 10.0 | 0.00 | 0.01 | 0.00 | 75 | 1011.8 |
| 20260506144527 | 42 | 288 | 3.0 | 12.0 | 0.00 | 0.01 | 0.00 | 76 | 1011.4 |
| 20260506143014 | 42 | 311 | 6.0 | 17.0 | 0.00 | 0.01 | 0.00 | 76 | 1011.1 |
| 20260506141514 | 42 | 342 | 5.0 | 15.0 | 0.00 | 0.01 | 0.00 | 77 | 1010.7 |
| 20260506140014 | 42 | 290 | 6.0 | 15.0 | 0.00 | 0.01 | 0.00 | 78 | 1010.6 |
| 20260506134514 | 41 | 309 | 5.0 | 13.0 | 0.00 | 0.01 | 0.00 | 78 | 1010.4 |
| 20260506133014 | 41 | 307 | 4.0 | 16.0 | 0.00 | 0.01 | 0.00 | 79 | 1010.3 |
| 20260506131514 | 41 | 305 | 4.0 | 13.0 | 0.00 | 0.01 | 0.00 | 79 | 1010.2 |
| 20260506130014 | 40 | 300 | 5.0 | 12.0 | 0.00 | 0.01 | 0.00 | 78 | 1010.1 |
| 20260506124514 | 40 | 296 | 4.0 | 16.0 | 0.00 | 0.01 | 0.00 | 80 | 1009.9 |
| 20260506123019 | 40 | 290 | 4.0 | 14.0 | 0.00 | 0.01 | 0.00 | 82 | 1009.7 |
| 20260506121515 | 39 | 283 | 6.0 | 15.0 | 0.00 | 0.01 | 0.00 | 82 | 1009.6 |
| 20260506120024 | 40 | 359 | 5.0 | 15.0 | 0.00 | 0.01 | 0.00 | 84 | 1009.5 |
| 20260506114519 | 40 | 328 | 4.0 | 11.0 | 0.00 | 0.01 | 0.00 | 86 | 1009.1 |
| 20260506113015 | 40 | 348 | 2.0 | 11.0 | 0.00 | 0.01 | 0.00 | 87 | 1008.8 |
| 20260506111514 | 40 | 329 | 3.0 | 11.0 | 0.00 | 0.01 | 0.00 | 88 | 1008.6 |
| 20260506110015 | 39 | 360 | 5.0 | 11.0 | 0.00 | 0.01 | 0.00 | 88 | 1008.1 |
| 20260506104523 | 39 | 307 | 5.0 | 11.0 | 0.00 | 0.01 | 0.00 | 88 | 1007.5 |
| 20260506103016 | 39 | 6 | 3.0 | 10.0 | 0.00 | 0.01 | 0.00 | 88 | 1007.3 |
| 20260506101515 | 39 | 317 | 4.0 | 11.0 | 0.00 | 0.01 | 0.00 | 88 | 1007.5 |
| 20260506100019 | 39 | 321 | 4.0 | 10.0 | 0.00 | 0.01 | 0.00 | 88 | 1007.3 |
| 20260506094515 | 40 | 335 | 4.0 | 12.0 | 0.00 | 0.01 | 0.00 | 87 | 1007.4 |
| 20260506093020 | 40 | 300 | 2.0 | 10.0 | 0.00 | 0.01 | 0.00 | 87 | 1007.2 |
| 20260506091515 | 40 | 292 | 4.0 | 11.0 | 0.00 | 0.01 | 0.00 | 86 | 1007.1 |
| 20260506090015 | 40 | 304 | 4.0 | 12.0 | 0.00 | 0.01 | 0.00 | 87 | 1007.1 |
| 20260506084515 | 41 | 316 | 3.0 | 9.0 | 0.00 | 0.01 | 0.00 | 88 | 1007.2 |
| 20260506083021 | 41 | 289 | 1.0 | 9.0 | 0.00 | 0.01 | 0.00 | 89 | 1007.2 |
| 20260506081517 | 41 | 240 | 0.0 | 3.0 | 0.00 | 0.01 | 0.00 | 89 | 1006.9 |
| 20260506073015 | 44 | 231 | 0.0 | 3.0 | 0.00 | 0.01 | 0.00 | 87 | 1006.8 |
| 20260506071518 | 44 | 231 | 0.0 | 4.0 | 0.00 | 0.01 | 0.00 | 86 | 1006.8 |
| 20260506061516 | 47 | 129 | 0.0 | 0.0 | 0.00 | 0.01 | 0.00 | 78 | 1006.3 |
| 20260506044517 | 48 | 128 | 0.0 | 2.0 | 0.00 | 0.01 | 0.00 | 87 | 1006.8 |
| 20260506043016 | 49 | 128 | 0.0 | 1.0 | 0.00 | 0.01 | 0.00 | 88 | 1007.0 |
| 20260506041516 | 49 | 128 | 0.0 | 3.0 | 0.00 | 0.01 | 0.00 | 88 | 1006.9 |
| 20260506040016 | 49 | 128 | 1.0 | 4.0 | 0.00 | 0.01 | 0.00 | 88 | 1007.0 |
| 20260506034516 | 49 | 128 | 0.0 | 4.0 | 0.00 | 0.01 | 0.01 | 87 | 1006.7 |
| 20260506033025 | 49 | 128 | 0.0 | 4.0 | 0.00 | 0.01 | 0.01 | 87 | 1006.9 |
| 20260506031529 | 49 | 93 | 0.0 | 2.0 | 0.00 | 0.01 | 0.01 | 87 | 1006.9 |
| 20260506030018 | 49 | 93 | 1.0 | 3.0 | 0.00 | 0.01 | 0.01 | 87 | 1007.1 |
| 20260506024525 | 50 | 93 | 1.0 | 3.0 | 0.00 | 0.01 | 0.01 | 86 | 1007.0 |
| 20260506023017 | 50 | 93 | 0.0 | 2.0 | 0.00 | 0.01 | 0.01 | 87 | 1006.5 |
| 20260506021518 | 50 | 93 | 0.0 | 1.0 | 0.00 | 0.01 | 0.01 | 86 | 1006.8 |
| 20260506020017 | 50 | 93 | 0.0 | 0.0 | 0.00 | 0.01 | 0.01 | 86 | 1006.7 |
| 20260506014516 | 50 | 93 | 0.0 | 0.0 | 0.00 | 0.01 | 0.01 | 86 | 1006.7 |
| 20260506013020 | 49 | 93 | 0.0 | 3.0 | 0.00 | 0.01 | 0.01 | 86 | 1006.7 |
| 20260506011519 | 50 | 49 | 0.0 | 0.0 | 0.00 | 0.01 | 0.01 | 86 | 1006.5 |
| 20260506010043 | 49 | 49 | 0.0 | 0.0 | 0.00 | 0.01 | 0.01 | 85 | 1006.4 |
| 20260506004517 | 50 | 49 | 0.0 | 0.0 | 0.00 | 0.01 | 0.01 | 84 | 1006.3 |
| 20260506003017 | 50 | 49 | 0.0 | 0.0 | 0.01 | 0.01 | 0.01 | 84 | 1006.2 |
| 20260506001517 | 50 | 49 | 0.0 | 0.0 | 0.01 | 0.01 | 0.01 | 83 | 1006.2 |
| 20260506000018 | 51 | 49 | 0.0 | 0.0 | 0.01 | 0.01 | 0.01 | 82 | 1005.9 |
| 20260505234517 | 51 | 49 | 0.0 | 1.0 | 0.00 | 0.00 | 0.00 | 82 | 1005.8 |
| 20260505233018 | 51 | 49 | 0.0 | 0.0 | 0.00 | 0.00 | 0.00 | 82 | 1005.9 |
| 20260505231518 | 51 | 49 | 0.0 | 1.0 | 0.00 | 0.00 | 0.00 | 81 | 1006.0 |
| 20260505230025 | 51 | 49 | 0.0 | 2.0 | 0.00 | 0.00 | 0.00 | 81 | 1005.9 |
| 20260505224517 | 51 | 49 | 0.0 | 2.0 | 0.00 | 0.00 | 0.00 | 81 | 1006.1 |
| 20260505223018 | 50 | 49 | 2.0 | 3.0 | 0.00 | 0.00 | 0.00 | 82 | 1006.0 |
| 20260505221519 | 49 | 49 | 1.0 | 3.0 | 0.00 | 0.00 | 0.00 | 81 | 1006.2 |
| 20260505220022 | 49 | 49 | 0.0 | 2.0 | 0.00 | 0.00 | 0.00 | 80 | 1006.2 |